KG1ZR Weather Reports


Display with metric or nautical units.
time (UTC)temp
F
wind
direction
speed
MPH
gust
MPH
rain 1hr
in
rain 24hr
in
rain mn
in
humidity
%
barometer
mb
20260510010529 43 79 3.0 9.0 0.07 0.20 0.20 65 1012.4
20260510005529 43 59 1.0 10.0 0.08 0.20 0.20 66 1012.6
20260510004528 43 80 3.0 10.0 0.08 0.19 0.19 66 1012.6
20260510003529 43 90 6.0 13.0 0.08 0.19 0.19 66 1012.5
20260510002528 43 110 5.0 12.0 0.07 0.17 0.16 66 1012.4
20260510001528 43 88 4.0 9.0 0.05 0.15 0.15 66 1012.4
20260510001010 43 121 4.0 10.0 0.03 0.13 0.13 67 1012.5
20260509235529 43 107 3.0 6.0 0.02 0.12 0.12 67 1012.4
20260509235445 43 101 3.0 5.0 0.01 0.11 0.11 67 1012.6
20260509233529 43 82 2.0 5.0 0.01 0.11 0.11 68 1012.7
20260509232528 43 69 2.0 5.0 0.00 0.10 0.10 68 1012.8
20260509231529 43 101 1.0 4.0 0.00 0.10 0.10 68 1012.9
20260509230529 43 135 2.0 7.0 0.00 0.10 0.10 68 1013.0
20260509225528 43 134 2.0 5.0 0.01 0.10 0.10 68 1013.1
20260509225006 43 107 2.0 6.0 0.01 0.10 0.10 69 1013.3
20260509223529 43 187 1.0 4.0 0.02 0.10 0.10 69 1013.3
20260509222528 43 108 3.0 8.0 0.03 0.10 0.10 69 1013.1
20260509222005 44 92 3.0 8.0 0.04 0.10 0.10 70 1013.0
20260509220529 44 82 2.0 6.0 0.05 0.10 0.10 70 1013.0
20260509215529 44 86 3.0 7.0 0.05 0.09 0.09 71 1013.0
20260509214529 44 87 3.0 7.0 0.06 0.09 0.09 71 1013.0
20260509213530 44 80 3.0 7.0 0.05 0.08 0.08 72 1012.8
20260509212528 44 103 4.0 8.0 0.05 0.07 0.07 73 1012.9
20260509211529 44 105 3.0 6.0 0.04 0.06 0.06 72 1013.1
20260509210529 44 132 3.0 7.0 0.03 0.05 0.05 73 1013.3
20260509205529 45 146 2.0 4.0 0.03 0.04 0.04 73 1013.4
20260509204528 45 133 2.0 6.0 0.02 0.03 0.03 74 1013.6
20260509204007 45 193 2.0 7.0 0.02 0.03 0.03 75 1013.6
20260509202528 45 196 3.0 7.0 0.02 0.02 0.02 76 1013.6
20260509201529 45 131 3.0 6.0 0.02 0.02 0.02 76 1013.8
20260509200528 45 138 3.0 7.0 0.02 0.02 0.02 76 1013.8
20260509200012 46 204 3.0 10.0 0.01 0.01 0.01 77 1014.0
20260509194528 46 94 4.0 10.0 0.01 0.01 0.01 78 1013.9
20260509193526 47 116 3.0 10.0 0.01 0.01 0.01 78 1013.9
20260509192526 47 187 3.0 8.0 0.00 0.00 0.00 77 1013.9
20260509191524 47 186 4.0 9.0 0.00 0.00 0.00 77 1013.9
20260509190524 48 148 5.0 15.0 0.00 0.00 0.00 74 1013.9
20260509185524 49 180 6.0 15.0 0.00 0.00 0.00 69 1013.9
20260509184523 50 194 5.0 12.0 0.00 0.00 0.00 63 1013.8
20260509183522 51 173 5.0 14.0 0.00 0.00 0.00 58 1013.4
20260509182523 52 182 5.0 14.0 0.00 0.00 0.00 54 1013.3
20260509181521 53 173 6.0 17.0 0.00 0.00 0.00 51 1013.3
20260509180520 53 215 7.0 17.0 0.00 0.00 0.00 48 1013.1
20260509175521 54 252 5.0 10.0 0.00 0.00 0.00 48 1012.8
20260509174519 55 207 7.0 17.0 0.00 0.00 0.00 43 1012.9
20260509173518 56 183 7.0 15.0 0.00 0.00 0.00 42 1012.8
20260509173438 56 142 5.0 11.0 0.00 0.00 0.00 42 1012.7
20260509171512 56 216 4.0 14.0 0.00 0.00 0.00 42 1012.6
20260509170511 56 211 6.0 14.0 0.00 0.00 0.00 43 1012.7
20260509165944 56 200 7.0 17.0 0.00 0.00 0.00 41 1012.5
20260509164957 56 171 7.0 17.0 0.00 0.00 0.00 42 1012.6
20260509163508 57 201 6.0 14.0 0.00 0.00 0.00 42 1012.7
20260509162509 58 224 6.0 15.0 0.00 0.00 0.00 40 1012.7
20260509161507 58 68 6.0 17.0 0.00 0.00 0.00 41 1012.6
20260509160506 59 213 6.0 16.0 0.00 0.00 0.00 39 1012.7
20260509155506 58 207 6.0 14.0 0.00 0.00 0.00 40 1012.7
20260509154506 59 228 5.0 12.0 0.00 0.00 0.00 42 1012.7
20260509153506 59 100 4.0 9.0 0.00 0.00 0.00 41 1012.8
20260509152507 58 113 5.0 9.0 0.00 0.00 0.00 42 1012.9
20260509151506 58 117 5.0 14.0 0.00 0.00 0.00 42 1012.9
20260509150506 58 181 5.0 14.0 0.00 0.00 0.00 40 1013.0
20260509145948 57 103 4.0 11.0 0.00 0.00 0.00 41 1012.9
20260509144505 57 182 5.0 14.0 0.00 0.00 0.00 41 1013.1
20260509143940 57 257 5.0 12.0 0.00 0.00 0.00 43 1012.9
20260509142504 57 174 4.0 10.0 0.00 0.00 0.00 45 1013.0
20260509141505 56 241 4.0 10.0 0.00 0.00 0.00 43 1013.1
20260509140505 55 189 4.0 10.0 0.00 0.00 0.00 50 1013.1
20260509135508 55 148 5.0 12.0 0.00 0.00 0.00 47 1013.3
20260509134507 55 177 4.0 10.0 0.00 0.00 0.00 46 1013.4
20260509133505 54 115 4.0 10.0 0.00 0.00 0.00 51 1013.3
20260509132505 53 183 4.0 10.0 0.00 0.00 0.00 52 1013.4
20260509131504 52 153 6.0 13.0 0.00 0.00 0.00 53 1013.4
20260509130504 51 173 6.0 13.0 0.00 0.00 0.00 52 1013.4
20260509125944 51 121 5.0 11.0 0.00 0.00 0.00 52 1013.6
20260509124500 51 126 3.0 8.0 0.00 0.00 0.00 57 1013.6
20260509123459 49 274 3.0 5.0 0.00 0.00 0.00 63 1013.6
20260509122458 48 220 2.0 5.0 0.00 0.00 0.00 67 1013.8
20260509121458 47 234 1.0 3.0 0.00 0.00 0.00 73 1013.6
20260509120932 45 290 1.0 3.0 0.00 0.00 0.00 76 1013.6
20260509115456 44 287 0.0 3.0 0.00 0.00 0.00 79 1013.8
20260509114456 41 250 0.0 0.0 0.00 0.00 0.00 76 1013.8
20260509113454 39 250 0.0 0.0 0.00 0.00 0.00 73 1013.6
20260509112937 37 250 0.0 0.0 0.00 0.00 0.00 75 1013.6
20260509111454 37 250 0.0 0.0 0.00 0.00 0.00 74 1013.5
20260509110457 37 250 0.0 0.0 0.00 0.00 0.00 73 1013.4
20260509105448 35 250 0.0 0.0 0.00 0.00 0.00 72 1013.3
20260509104451 33 250 0.0 0.0 0.00 0.00 0.00 73 1013.3
20260509103449 32 250 0.0 0.0 0.00 0.00 0.00 74 1013.3
20260509102936 31 250 0.0 0.0 0.00 0.00 0.00 75 1013.2
20260509101925 29 250 0.0 0.0 0.00 0.00 0.00 76 1013.0
20260509100448 29 250 0.0 0.0 0.00 0.00 0.00 76 1012.9
20260509100415 29 250 0.0 0.0 0.00 0.00 0.00 76 1012.6
20260509094448 29 250 0.0 0.0 0.00 0.00 0.00 77 1012.5
20260509093447 29 250 0.0 0.0 0.00 0.00 0.00 76 1012.3
20260509092446 29 250 0.0 0.0 0.00 0.00 0.00 77 1012.2
20260509091447 29 250 0.0 0.0 0.00 0.00 0.00 77 1012.2
20260509090526 29 250 0.0 0.0 0.00 0.00 0.00 77 1012.2
20260509085523 30 250 0.0 0.0 0.00 0.00 0.00 77 1012.2
20260509084520 30 250 0.0 0.0 0.00 0.00 0.00 77 1012.3
20260509083516 30 250 0.0 0.0 0.00 0.00 0.00 77 1012.3
20260509082513 30 250 0.0 0.0 0.00 0.00 0.00 77 1012.4
20260509081508 30 250 0.0 0.0 0.00 0.00 0.00 78 1012.3
20260509080504 30 250 0.0 0.0 0.00 0.00 0.00 78 1012.3
20260509075501 30 250 0.0 0.0 0.00 0.00 0.00 78 1012.2
20260509074458 30 250 0.0 0.0 0.00 0.00 0.00 78 1012.2
20260509073956 30 250 0.0 0.0 0.00 0.00 0.00 78 1012.0
20260509072450 30 250 0.0 2.0 0.00 0.00 0.00 80 1012.0
20260509071449 31 250 1.0 2.0 0.00 0.00 0.00 79 1011.9
20260509070447 31 250 0.0 0.0 0.00 0.00 0.00 80 1011.8
20260509065950 32 250 0.0 0.0 0.00 0.00 0.00 80 1011.8
20260509064943 32 250 0.0 0.0 0.00 0.00 0.00 80 1011.7
20260509063440 33 250 0.0 0.0 0.00 0.00 0.00 80 1011.6
20260509062440 33 250 0.0 0.0 0.00 0.00 0.00 80 1011.5
20260509061440 33 250 0.0 0.0 0.00 0.00 0.00 80 1011.4
20260509060440 33 250 0.0 0.0 0.00 0.00 0.00 80 1011.4
20260509055440 33 250 0.0 0.0 0.00 0.00 0.00 80 1011.5
20260509054440 34 250 0.0 0.0 0.00 0.00 0.00 80 1011.5
20260509053440 34 250 0.0 0.0 0.00 0.00 0.00 80 1011.6
20260509052919 34 250 0.0 0.0 0.00 0.00 0.00 80 1011.6
20260509051439 34 250 0.0 5.0 0.00 0.00 0.00 80 1011.7
20260509050438 34 250 3.0 5.0 0.00 0.00 0.00 80 1011.7
20260509045438 34 271 1.0 3.0 0.00 0.00 0.00 80 1011.6
20260509044438 35 304 0.0 0.0 0.00 0.00 0.00 79 1011.5
20260509043438 35 304 0.0 1.0 0.00 0.00 0.00 80 1011.4
20260509042438 35 304 0.0 0.0 0.00 0.00 0.00 80 1011.3
20260509041441 35 304 0.0 1.0 0.00 0.00 0.00 80 1011.2
20260509040438 35 304 0.0 1.0 0.00 0.00 0.00 80 1011.1
20260509035435 35 304 0.0 0.0 0.00 0.00 0.00 80 1011.0
20260509034916 35 304 0.0 0.0 0.00 0.00 0.00 80 1010.9
20260509033435 35 304 0.0 0.0 0.00 0.00 0.00 80 1010.8
20260509032918 35 304 0.0 0.0 0.00 0.00 0.00 80 1010.8
20260509031435 35 304 0.0 0.0 0.00 0.00 0.00 80 1010.6
20260509030435 36 304 0.0 0.0 0.00 0.00 0.00 80 1010.5
20260509025435 36 304 0.0 0.0 0.00 0.00 0.00 80 1010.5
20260509024435 37 304 0.0 0.0 0.00 0.00 0.00 79 1010.4
20260509023436 37 304 0.0 0.0 0.00 0.00 0.00 79 1010.3
20260509022433 37 304 0.0 0.0 0.00 0.00 0.00 79 1010.1
20260509021918 37 304 0.0 0.0 0.00 0.00 0.00 79 1010.1
20260509020432 38 304 0.0 0.0 0.00 0.00 0.00 79 1010.0
20260509015433 38 304 0.0 0.0 0.00 0.00 0.00 79 1010.0
20260509014433 38 304 0.0 0.0 0.00 0.00 0.00 78 1009.8
20260509013918 39 304 0.0 0.0 0.00 0.00 0.00 77 1009.7
20260509012919 39 304 0.0 0.0 0.00 0.00 0.00 77 1009.5
20260509011433 40 304 0.0 1.0 0.00 0.00 0.00 76 1009.5